Skip Page Navigation
NASA JPL Caltech
NASA Logo - Jet Propulsion Laboratory + View the NASA Portal
+ Center for Near-Earth Object Studies
JPL Home Earth Solar System Stars & Galaxies Technology
JPL Solar System Dynamics
BODIES ORBITS EPHEMERIDES TOOLS PHYSICAL DATA DISCOVERY FAQ SITE MAP
IMPORTANT: The SSD Announcement email list is now available. Major changes are coming in the near future, including possible hostname and/or URL changes. To be notified of such changes, subscribe to this email list.

Please visit this page for more details.


JPL Small-Body Database Browser
Search: [ help ]  
100784 (1998 FM61)
Classification: Main-belt Asteroid          SPK-ID: 2100784
Ephemeris | Orbit Diagram | Orbital Elements | Mission Design | Physical Parameters | Discovery Circumstances | Close-Approach Data ]

[ show orbit diagram ]
Orbital Elements at Epoch 2459000.5 (2020-May-31.0) TDB
Reference: JPL 16 (heliocentric ecliptic J2000)
 Element Value Uncertainty (1-sigma)   Units 
e .2105887990039731 3.4854e-08  
a 2.365827452238319 1.1177e-08 au
q 1.867610690420822 8.3391e-08 au
i 4.408186400845718 5.3371e-06 deg
node .3872133073481448 5.1931e-05 deg
peri 264.8940818735238 5.3585e-05 deg
M 339.6287748896247 1.5116e-05 deg
tp 2459075.712092997903
(2020-Aug-14.21209300)
5.6007e-05 TDB
period 1329.147036201311
3.64
9.4192e-06
2.579e-08
d
yr
n .2708503951743943 1.9194e-09 deg/d
Q 2.864044214055816 1.3531e-08 au
  Orbit Determination Parameters
   # obs. used (total)      759  
   data-arc span      8004 days (21.91 yr)  
   first obs. used      1998-03-02  
   last obs. used      2020-01-30  
   planetary ephem.      DE431  
   SB-pert. ephem.      SB431-N16  
   condition code      0  
   norm. resid. RMS      .55886  
   source      ORB  
   producer      Otto Matic  
   solution date      2020-Feb-24 01:11:11  

Additional Information
 Earth MOID = .858316 au 
 Jupiter MOID = 2.24482 au 
 T_jup = 3.514 
[ show covariance matrix ]

Ephemeris | Orbit Diagram | Orbital Elements | Mission Design | Physical Parameters | Discovery Circumstances | Close-Approach Data ]

Physical Parameter Table
Parameter Symbol Value Units Sigma Reference Notes
absolute magnitude H 15.7   n/a MPO366382  
diameter diameter 4.582 km 0.192 urn:nasa:pds:neowise_diameters_albedos::2.0[mainbelt] (http://adsabs.harvard.edu/abs/2011ApJ...741...68M)  
rotation period rot_per 4.301 h n/a LCDB (Rev. 2019-August); Warner et al., 2009 Result based on less than full coverage, so that the period may be wrong by 30 percent or so.
Published Reference List:
[Waszczak, A.; Chang, C.-K.; Ofeck, E.O.; Laher, F.; et al. (2015) Astron. J. 150, A75.]
[Durech, J.; Hanus, J.; Ali-Lagoa, V. (2018) Astron. Astrophys. 617, A57.]
geometric albedo albedo 0.053   0.007 urn:nasa:pds:neowise_diameters_albedos::2.0[mainbelt] (http://adsabs.harvard.edu/abs/2011ApJ...741...68M)  

100784 (1998 FM61)          Discovered 1998-Mar-20 by LINEAR at Socorro
Reference: 20051019/Numbers.arcLast Updated: 2005-10-26

[ show close-approach data ]
Alternate Designations
 1998 FM61 = 1999 TR174 
Ephemeris | Orbit Diagram | Orbital Elements | Mission Design | Physical Parameters | Discovery Circumstances | Close-Approach Data ]
ABOUT SSD CREDITS/AWARDS PRIVACY/COPYRIGHT GLOSSARY LINKS
FirstGov 2020-Mar-31 23:39 UT
(server date/time)  
NASA Home Page
Site Manager:   Ryan S. Park
Webmaster  Alan B. Chamberlin